Regional Weather Roundup
Issued by NWS Upton, NY

Home | Current Version | Previous Version | Text Only | Print | Product List | Glossary On
Versions: 1 2 3 4 5 6 7 8 9 10 11 12 13 14 15 16 17 18 19 20 21 22 23 24 25 26 27 28 29 30 31 32 33 34 35 36 37 38 39 40 41 42 43 44 45 46 47 48 49 50
000
ASUS41 KOKX 291408
RWROKX

REGIONAL WEATHER ROUNDUP
NATIONAL WEATHER SERVICE NEW YORK NY
1000 AM EDT WED MAR 29 2017

NOTE: "FAIR" INDICATES FEW OR NO CLOUDS BELOW 12,000 FEET WITH NO
SIGNIFICANT WEATHER AND/OR OBSTRUCTIONS TO VISIBILITY.

NYZ071-072-176-178-NJZ106-104-291500-
NEW YORK CITY METRO AREA

CITY           SKY/WX    TMP DP  RH WIND       PRES   REMARKS
Central Park   CLOUDY    45  38  76 MISG      30.09R
Wall St Helipt CLOUDY    46  38  73 VRB6      30.08S
LaGuardia APRT CLOUDY    48  37  65 N12       30.07R
Kennedy INTL   PTSUNNY   48  37  65 N18G26    30.06S
Breezy Point     N/A     45 N/A N/A NW13G18     N/A
Newark/Liberty CLOUDY    45  37  73 N15       30.08R
Teterboro      CLOUDY    47  38  71 N8G17     30.06S
$$

NYZ177-179-078>081-291500-
LONG ISLAND NEW YORK

CITY           SKY/WX    TMP DP  RH WIND       PRES   REMARKS
Jones Beach      N/A     45 N/A N/A N21         N/A
Matinecock PT  NOT AVBL
Farmingdale    CLOUDY    46  36  68 N14G25    30.05R
MacArthur/ISP  MOSUNNY   49  36  61 N17G24    30.03R
Shirley        CLOUDY    44  38  79 N15G23    30.04R
Westhampton    CLOUDY    46  37  71 N14G23    30.03R
East Hampton   CLOUDY    45  36  72 N10G17    30.01S
Montauk        NOT AVBL
$$

NYZ052-065-067-291500-
HUDSON VALLEY

CITY           SKY/WX    TMP DP  RH WIND       PRES   REMARKS
White Plains   PTSUNNY   45  35  68 N13G24    30.05R
Newburgh       MOSUNNY   45  39  81 N9        30.09R
Montgomery     CLOUDY    47  36  65 N8        30.07S
Poughkeepsie   MOSUNNY   45  33  63 N12G23    30.07S
Albany         DRIZZLE   39  35  86 NE7       30.13R WCI  34
$$

NJZ001-105-106-008-010-013-015-019>022-104-291500-
NEW JERSEY

CITY           SKY/WX    TMP DP  RH WIND       PRES   REMARKS
Newark/Liberty CLOUDY    45  37  73 N15       30.08R
Teterboro      CLOUDY    47  38  71 N8G17     30.06S
Caldwell       PTSUNNY   47  34  60 N8        30.08S
Somerville     SUNNY     48  34  58 NW10G17   30.07S
Linden         CLOUDY    47  36  65 N12G18    30.09R
Sussex         SUNNY     45  34  65 NW10      30.10R
Andover          N/A     44  32  62 N10G20    30.09S
Trenton        SUNNY     47  35  63 N14       30.09R
Millville      CLOUDY    48  41  76 NW10      30.09R
Atlantic City  CLOUDY    48  40  73 N13       30.07R
Wrightstown    CLOUDY    45  37  76 N13       30.06R
Toms River     CLOUDY    45  41  86 N8        30.08R
Belmar         CLOUDY    46  39  76 NW14G22   30.08R
$$

PAZ047>061-062-071-291500-
EASTERN PENNSYLVANIA

CITY           SKY/WX    TMP DP  RH WIND       PRES   REMARKS
Philadelphia   MOSUNNY   49  36  61 N16       30.11R
Allentown      SUNNY     48  33  56 N10       30.12R
Scranton       CLOUDY    43  32  65 N9G21     30.14R
$$

CTZ002-004>006-009-010-012-RIZ004-006-007-MAZ004-011-015-291500-
SOUTHERN NEW ENGLAND
 IN CT

CITY           SKY/WX    TMP DP  RH WIND       PRES   REMARKS
Bradley INTL   PTSUNNY   46  34  62 N20       30.06R
Hartford       PTSUNNY   45  34  65 N12       30.06R
Danbury        CLOUDY    42  35  76 N9G18     30.07R
Wtrbury/Oxford PTSUNNY   43  30  61 N18G26    30.05R
Bridgeport     MOSUNNY   50  34  54 N13G26    30.04R
Meriden        MOSUNNY   47  34  60 N14G22    30.05R
New Haven      MOSUNNY   47  35  63 N17G30    30.04R
Chester        NOT AVBL
Groton         CLOUDY    45  36  70 N16       30.01R
Wilimantic     CLOUDY    46  34  62 N13       30.04R

 IN RI

CITY           SKY/WX    TMP DP  RH WIND       PRES   REMARKS
Providence     LGT RAIN  42  37  82 N14       30.02R
Block Island   CLOUDY    42  38  85 N10G18    30.00R
Westerly       CLOUDY    44  39  82 N14G20    30.01R
 IN MA

CITY           SKY/WX    TMP DP  RH WIND       PRES   REMARKS
Boston         CLOUDY    39  37  92 N13       30.03R WCI  31
Worcester      CLOUDY    39  30  70 NE10      30.00R WCI  32
Westfield      CLOUDY    45  33  63 N14       30.05R
Provincetown   CLOUDY    40  37  89 N15G21    29.99R WCI  32
Nantucket      CLOUDY    42  38  85 N22G29    29.93R
$$

ANZ330-335-338-340-345-350-353-355-291500-
COASTAL MARINE OBSERVATIONS


STATION/POSITION TIME  SKY/WX   TEMP    WIND        PRES    VSBY  WAVE
                                AIR SEA DIR/SP/G                  HT/PER
                 (UTC)          (F)     (DEG/KT/KT) (MB)    (MI)  (FT/S)
NY HARB ENTRANCE 1250            44 42  340/ 10/ 12 1017.4          3/ 9
20 S FIRE ISLAND 1350            43 42  360/ 16/ 19 1016.6          4/ 9
GREAT SOUTH BAY  NOT AVBL
23 SSW MONTAUK P 1250            41 42              1016.0          3/ 9
15 E BARNEGAT LI 1330               44                N/A           4/10
HUDSON CANYON    1250            44 43   10/ 19/ 23 1015.1          5/ 6
KINGS POINT      1342            43 40              1018.0
EXECUTION ROCKS  NOT AVBL
CENTRAL LI SOUND 1330            43      10/ 17/ 23   N/A           1
EASTERN LI SOUND NOT AVBL
ROBBINS REEF     1342            45     340/ 13/ 18 1018.6
$$


>>>>>>>>>>>>>>>>>>>>>>>>>>>> KEY <<<<<<<<<<<<<<<<<<<<<<<<<<<
>                                                          <
>     SKY/WX - Sky Condition/Present Weather               <
>     TMP    - Temperature in Fahrenheit                   <
>     DP     - Dew Point in Fahrenheit                     <
>     RH     - Relative Humidity in Percent                <
>     WIND   - Direction (from) and Speed in MPH           <
>     PRES   - Mean Sea Level Pressure (inches of Hg)      <
>     WCI    - Wind Chill Index                            <
>     VSB    - VISIBILITY IN MILES                         <
>     HX     - HEAT INDEX                                  <
>     TC     - TEMPERATURE IN CELSIUS                      <
>     VRB    - VARIABLE WIND DIRECTION                     <
>                                                          <
>>>>>>>>>>>>>>>>>>>>>>>>>>>> KEY <<<<<<<<<<<<<<<<<<<<<<<<<<<



USA.gov is the U.S. government's official web portal to all federal, state and local government web resources and services.